Location: Par�ac
(43.1162°N, 0.0234°E)
Time: 14:02:16
(UTC+00:00)

Daily predictions for brighter satellites

Satellite Brightness Start Highest point End
(mag) Time Altitude Azimuth Time Altitude Azimuth Time Altitude Azimuth
STARLINK-1102 3.9 20:05:13 10° NW 20:09:21 66° NNE 20:13:27 10° ESE
NOSS 2-2 (D) 3.1 20:06:00 10° SSW 20:09:29 58° ESE 20:13:14 10° NE
Aureole 2 Rocket 2.0 20:07:05 10° SSW 20:10:09 85° ESE 20:13:05 10° NNE
CZ-2C R/B 2.8 20:05:06 10° NNE 20:10:45 79° ESE 20:16:20 10° S
ARGOS 4.2 20:05:53 10° S 20:11:02 46° W 20:16:14 10° NNW
Cosmos 1331 Rocket 4.3 20:06:24 10° S 20:11:17 45° ESE 20:16:14 10° NNE
STARLINK-1111 3.8 20:10:12 10° NW 20:14:21 72° NE 20:18:28 10° ESE
STARLINK-52 4.1 20:14:19 10° S 20:16:54 23° SE 20:19:31 10° E
SL-4 R/B 2.5 20:14:36 10° SW 20:19:06 53° SE 20:23:48 10° ENE
Cosmos 1943 Rocket 2.7 20:14:15 10° S 20:19:16 36° ESE 20:24:21 10° NE
STARLINK-1073 3.7 20:15:09 10° NW 20:19:18 77° NE 20:23:26 10° ESE
Okean 2 Rocket 3.4 20:15:23 10° NNW 20:19:47 69° W 20:24:07 10° S
GPS 2-04 Rocket1 4.3 20:18:35 10° SW 20:20:44 16° SSW 20:22:55 10° SSE
SPOT 3 Rocket 3.7 20:16:11 10° SSE 20:21:20 81° WSW 20:26:32 10° NNW
Terra 4.0 20:21:37 10° E 20:23:19 12° ENE 20:25:00 10° NE
STARLINK-1121 3.6 20:20:06 10° NW 20:24:16 84° NE 20:28:16 11° SE
Nadezhda 4 Rocket 4.3 20:18:58 10° SSE 20:24:44 45° E 20:30:31 10° NNE
NOSS 2-2 (E) 3.4 20:22:18 10° SW 20:25:49 71° NW 20:29:45 10° NNE
OE (NEXTSAT) 4.3 20:22:38 10° WSW 20:26:07 72° SSE 20:29:37 10° ENE
Cosmos 304 Rocket 3.9 20:21:38 10° SSW 20:26:25 84° WNW 20:31:15 10° NNE
H-2A R/B 4.2 20:24:20 10° SSW 20:28:31 25° W 20:32:50 10° NW
STARLINK-1106 3.6 20:25:06 10° NW 20:29:16 90° S 20:33:05 12° SE
FALCON 9 DEB 4.4 20:26:45 10° S 20:29:19 20° SE 20:31:53 10° E
Resurs 01 Rocket 1.6 20:25:18 10° SSE 20:29:44 80° ENE 20:34:13 10° N
USA 245 4.0 20:28:14 12° ESE 20:29:55 19° ENE 20:31:44 10° NNE
Cosmos 1833 Rocket 4.4 20:25:17 10° NW 20:30:03 29° WSW 20:34:49 10° SSW
ATLAS CENTAUR R/B 3.3 20:28:18 11° SE 20:30:04 13° ESE 20:32:06 10° E
Cosmos 1300 Rocket 4.1 20:26:29 10° NNW 20:30:52 59° W 20:35:11 10° S
Cosmos 1437 Rocket 2.9 20:27:56 10° SSW 20:31:43 75° W 20:35:35 10° N
SL-27 R/B 4.3 20:31:31 10° NNE 20:34:08 19° ENE 20:36:32 11° ESE
STARLINK-1112 3.6 20:30:05 10° NW 20:34:15 83° SW 20:37:52 13° SE
Cosmos 2279 Rocket 4.2 20:29:14 10° N 20:35:28 76° W 20:41:38 10° S
Cosmos 2151 Rocket 4.0 20:31:00 10° NNW 20:35:32 68° W 20:40:00 10° S
STARLINK-1128 3.6 20:35:03 10° WNW 20:39:12 77° SW 20:42:38 15° SE
Cosmos 2297 4.2 20:36:55 10° SW 20:42:34 67° WNW 20:48:18 10° NNE
Resurs 1-3 4.5 20:39:54 10° S 20:44:08 48° W 20:48:23 10° NNW
STARLINK-1113 3.7 20:40:04 10° WNW 20:44:12 70° SW 20:47:26 16° SE
STARLINK-60 3.2 20:42:13 10° WSW 20:45:22 70° NW 20:48:33 10° NE
Cosmos 2082 Rocket 3.5 20:40:34 10° NW 20:45:45 36° WSW 20:50:53 10° S
Aureole 2 4.5 20:45:06 10° NNW 20:48:02 57° WSW 20:50:27 14° S
STARLINK-1119 3.8 20:45:03 10° WNW 20:49:09 64° SW 20:52:12 17° SE
Cosmos 1242 Rocket 4.4 20:48:43 14° ESE 20:49:52 16° E 20:52:12 10° NE
Cosmos 2369 Rocket 2.5 20:45:19 10° S 20:50:43 47° ESE 20:56:07 10° NE
BREEZE-M DEB 2.0 20:48:46 10° SW 20:50:56 70° SSE 20:54:59 10° ENE
NOSS 2-2 (C) 4.2 20:48:04 10° SW 20:51:30 48° NW 20:55:20 10° NNE
Cosmos 1674 Rocket 4.1 20:47:52 10° SSW 20:52:13 62° W 20:56:37 10° N
Cosmos 1378 Rocket 3.6 20:48:04 10° S 20:52:28 82° W 20:56:51 10° N
Abrixas rocket 3.4 20:50:16 10° W 20:52:47 25° SW 20:54:17 17° S
Cosmos 1766 3.9 20:49:11 10° N 20:53:00 42° ENE 20:55:36 18° SE
ATLAS 3B CENTAUR R/B 4.4 20:36:42 10° WSW 20:53:04 39° S 21:00:02 15° SE
STARLINK-1114 3.9 20:50:03 10° WNW 20:54:08 58° SW 20:57:00 18° SE
MetOp-B 4.1 20:49:20 11° SSE 20:54:25 85° ENE 20:59:49 10° NNW
ATLAS 2AS CENTAUR R/B 3.4 20:49:30 10° S 20:56:51 44° ESE 21:04:17 10° NE
Meteor 1-15 Rocket 4.4 20:51:03 10° NNW 20:57:00 80° W 21:02:51 10° S
STARLINK-1130 (DARKSAT) 4.0 20:55:02 10° WNW 20:59:05 53° SW 21:01:46 20° SSE
NOSS 3-2 (A) 4.1 20:52:11 10° NW 20:59:48 80° NE 21:06:43 17° SE
Cosmos 292 Rocket 4.3 20:57:16 13° S 21:01:15 40° ESE 21:05:47 10° NE
SL-8 R/B 3.9 20:57:21 10° WNW 21:02:04 57° SSW 21:05:16 20° SE
ERS-1 Rocket 3.6 20:59:14 17° SE 21:02:43 43° ENE 21:07:28 10° N
STARLINK-1084 4.1 21:00:03 10° WNW 21:04:03 48° SW 21:06:33 21° SSE
STARLINK-1209 4.1 21:02:21 10° NW 21:05:16 35° NNE 21:07:23 16° E
BREEZE-M DEB (TANK) 4.2 20:49:45 10° WNW 21:05:22 78° NNE 21:09:24 15° ESE
STARLINK-1189 4.5 21:04:44 10° NW 21:07:25 28° NNE 21:09:34 13° E
STARLINK-1188 4.4 21:06:07 10° NW 21:08:51 29° NNE 21:10:59 14° E
STARLINK-1098 4.3 21:05:02 10° WNW 21:08:59 44° SW 21:11:19 21° SSE
Lacrosse 5 4.5 21:11:01 10° WSW 21:11:36 10° WSW 21:12:11 10° WSW
STARLINK-1444 3.4 21:10:15 10° WSW 21:12:07 36° NNW 21:14:00 10° NE
STARLINK-1452 3.4 21:10:17 10° WSW 21:12:07 36° NNW 21:14:00 10° NE
STARLINK-1191 4.4 21:09:20 10° NW 21:12:08 31° NNE 21:14:11 15° E
STARLINK-1221 4.3 21:10:19 10° NW 21:13:07 31° NNE 21:15:08 15° E
STARLINK-1436 (VISORSAT) 3.5 21:12:02 10° W 21:13:52 34° NNW 21:15:44 10° NE
STARLINK-1123 4.4 21:10:04 10° WNW 21:13:57 40° SW 21:16:07 22° SSE
STARLINK-1450 3.5 21:12:07 10° W 21:13:58 34° NNW 21:15:50 10° NE
STARLINK-1392 3.5 21:12:13 10° W 21:14:04 34° NNW 21:15:56 10° NE
STARLINK-1398 3.5 21:12:13 10° W 21:14:04 34° NNW 21:15:56 10° NE
STARLINK-1399 3.5 21:12:13 10° W 21:14:04 34° NNW 21:15:56 10° NE
STARLINK-1393 3.5 21:12:14 10° W 21:14:05 34° NNW 21:15:57 10° NE
STARLINK-1395 3.5 21:12:14 10° W 21:14:05 34° NNW 21:15:57 10° NE
STARLINK-1394 3.5 21:12:14 10° W 21:14:05 34° NNW 21:15:57 10° NE
STARLINK-1415 3.5 21:12:14 10° W 21:14:05 34° NNW 21:15:57 10° NE
STARLINK-1414 3.5 21:12:15 10° W 21:14:05 34° NNW 21:15:58 10° NE
STARLINK-1396 3.5 21:12:15 10° W 21:14:06 34° NNW 21:15:58 10° NE
STARLINK-1397 3.5 21:12:15 10° W 21:14:06 34° NNW 21:15:58 10° NE
STARLINK-1416 3.5 21:12:15 10° W 21:14:06 34° NNW 21:15:59 10° NE
STARLINK-1404 3.5 21:12:15 10° W 21:14:06 34° NNW 21:15:59 10° NE
STARLINK-1401 3.5 21:12:16 10° W 21:14:06 34° NNW 21:15:59 10° NE
STARLINK-1419 3.5 21:12:16 10° W 21:14:06 34° NNW 21:15:58 10° NE
STARLINK-1408 3.5 21:12:17 10° W 21:14:08 34° NNW 21:15:59 10° NE
STARLINK-1453 3.5 21:12:17 10° W 21:14:08 34° NNW 21:15:59 10° NE
STARLINK-1437 3.5 21:12:17 10° W 21:14:08 34° NNW 21:15:59 10° NE
STARLINK-1417 3.5 21:12:17 10° W 21:14:08 34° NNW 21:16:00 10° NE
STARLINK-1402 3.5 21:12:18 10° W 21:14:08 34° NNW 21:16:00 10° NE
STARLINK-1420 3.5 21:12:18 10° W 21:14:09 34° NNW 21:16:00 10° NE
STARLINK-1222 4.3 21:11:20 10° NW 21:14:09 31° NNE 21:16:07 16° E
STARLINK-1413 3.5 21:12:19 10° W 21:14:09 34° NNW 21:16:01 10° NE
STARLINK-1458 3.6 21:12:19 10° W 21:14:09 34° NNW 21:16:01 10° NE
STARLINK-1406 3.6 21:12:19 10° W 21:14:10 34° NNW 21:16:01 10° NE
STARLINK-1460 3.6 21:12:19 10° W 21:14:10 34° NNW 21:16:02 10° NE
STARLINK-1422 3.6 21:12:20 10° W 21:14:10 34° NNW 21:16:02 10° NE
STARLINK-1440 3.5 21:12:20 10° W 21:14:11 34° NNW 21:16:02 10° NE
STARLINK-1445 3.6 21:12:21 10° W 21:14:12 34° NNW 21:16:03 10° NE
USA 238 DEB 3.9 21:06:55 10° NW 21:14:12 88° SW 21:19:44 20° SSE
STARLINK-1443 3.6 21:12:22 10° W 21:14:13 34° NNW 21:16:04 10° NE
STARLINK-1446 3.6 21:12:22 10° W 21:14:13 34° NNW 21:16:05 10° NE
STARLINK-1454 3.6 21:12:23 10° W 21:14:14 34° NNW 21:16:05 10° NE
STARLINK-1457 3.6 21:12:23 10° W 21:14:14 34° NNW 21:16:05 10° NE
STARLINK-1456 3.6 21:12:23 10° W 21:14:14 34° NNW 21:16:06 10° NE
STARLINK-1451 3.6 21:12:24 10° W 21:14:15 34° NNW 21:16:06 10° NE
STARLINK-1447 3.6 21:12:25 10° W 21:14:15 34° NNW 21:16:07 10° NE
STARLINK-1455 3.6 21:12:25 10° W 21:14:16 34° NNW 21:16:07 10° NE
STARLINK-1442 3.6 21:12:25 10° W 21:14:16 34° NNW 21:16:07 10° NE
STARLINK-1449 3.6 21:12:26 10° W 21:14:16 34° NNW 21:16:08 10° NE
STARLINK-1448 3.6 21:12:26 10° W 21:14:16 34° NNW 21:16:08 10° NE
STARLINK-1441 3.6 21:12:26 10° W 21:14:16 34° NNW 21:16:08 10° NE
STARLINK-1405 3.6 21:12:27 10° W 21:14:18 34° NNW 21:16:09 10° NE
STARLINK-1423 3.6 21:12:27 10° W 21:14:18 34° NNW 21:16:09 10° NE
STARLINK-1421 3.6 21:12:27 10° W 21:14:18 34° NNW 21:16:09 10° NE
STARLINK-1410 3.6 21:12:28 10° W 21:14:18 34° NNW 21:16:10 10° NE
STARLINK-1407 3.6 21:12:28 10° W 21:14:18 34° NNW 21:16:10 10° NE
USA 238 3.9 21:07:01 10° NW 21:14:18 89° SW 21:19:50 20° SSE
STARLINK-1400 3.6 21:12:28 10° W 21:14:18 34° NNW 21:16:10 10° NE
STARLINK-1439 3.6 21:12:29 10° W 21:14:19 34° NNW 21:16:11 10° NE
STARLINK-1409 3.6 21:12:29 10° W 21:14:20 34° NNW 21:16:12 10° NE
STARLINK-1351 3.6 21:12:29 10° W 21:14:20 34° NNW 21:16:12 10° NE
STARLINK-1434 3.6 21:12:29 10° W 21:14:20 34° NNW 21:16:12 10° NE
STARLINK-1418 3.6 21:12:29 10° W 21:14:20 34° NNW 21:16:12 10° NE
STARLINK-1370 3.6 21:12:30 10° W 21:14:21 34° NNW 21:16:12 10° NE
STARLINK-1403 3.6 21:12:31 10° W 21:14:22 34° NNW 21:16:13 10° NE
STARLINK-1433 3.6 21:12:31 10° W 21:14:22 34° NNW 21:16:14 10° NE
STARLINK-1412 3.6 21:12:33 10° W 21:14:24 34° NNW 21:16:16 10° NE
STARLINK-1411 3.6 21:12:33 10° W 21:14:24 34° NNW 21:16:16 10° NE
STARLINK-1438 3.6 21:12:33 10° W 21:14:24 34° NNW 21:16:16 10° NE
Cosmos 1092 Rocket 3.9 21:08:42 11° S 21:14:31 70° E 21:20:39 10° NNE
Cosmos 968 Rocket 4.2 21:09:58 10° N 21:14:49 39° ENE 21:17:48 20° ESE
Landsat 7 3.8 21:11:34 18° SSE 21:15:09 88° W 21:19:56 10° NNW
STARLINK-1214 4.3 21:12:28 10° NW 21:15:18 32° NNE 21:17:14 16° E
Cosmos 1975 Rocket 3.1 21:14:16 19° S 21:17:20 62° E 21:21:42 10° NNE
STARLINK-29 3.1 21:14:08 10° WSW 21:17:22 76° NW 21:20:35 10° NE
Cosmos 1025 Rocket 4.4 21:17:46 19° ESE 21:18:50 21° E 21:22:05 10° NE
STARLINK-1234 3.9 21:16:09 10° NW 21:19:30 46° NNE 21:21:28 21° E
STARLINK-1228 3.9 21:17:02 10° NW 21:20:29 48° NNE 21:22:31 21° E
Cosmos 1378 3.8 21:19:20 10° SSW 21:22:58 54° W 21:26:37 10° N
COSMOS 2455 3.5 21:21:21 21° SSE 21:24:34 34° ESE 21:29:56 10° NE
Cosmos 2195 Rocket 4.5 21:19:52 14° S 21:25:21 74° E 21:31:36 10° NNE
BREEZE-M DEB (TANK) 4.4 21:05:09 10° WSW 21:26:36 78° NNW 21:31:18 10° ENE
Cosmos 1805 3.6 21:22:46 10° NNW 21:26:39 63° W 21:29:06 21° S
STARLINK-1377 4.3 21:28:58 30° ESE 21:28:58 30° ESE 21:32:05 10° ENE
STARLINK-1187 3.7 21:26:20 10° NW 21:29:27 46° NNE 21:30:51 27° E
Cosmos 1470 3.6 21:28:09 10° N 21:31:43 34° ENE 21:32:50 28° ESE
STARLINK-1353 4.1 21:32:53 33° SE 21:32:53 33° SE 21:36:16 10° ENE
Meteor 1-22 Rocket 4.3 21:28:38 10° NNW 21:34:27 82° W 21:38:09 22° S
STARLINK-1375 4.1 21:35:42 33° ESE 21:35:42 33° ESE 21:38:47 10° ENE
Cosmos 1726 4.1 21:34:13 10° NNE 21:36:31 16° ENE 21:37:13 15° E
Spot 2 Rocket 4.3 21:34:57 15° SSW 21:38:49 46° W 21:43:41 10° NNW
Milstar 3 Cent rocket 4.4 21:31:48 10° SW 21:39:50 35° SSE 21:55:14 10° E
STARLINK-1350 3.9 21:40:46 39° SE 21:40:56 39° SE 21:44:38 10° ENE
Cosmos 1733 3.5 21:37:39 10° NNW 21:41:25 62° W 21:43:09 29° SSW
Cosmos 1842 3.3 21:39:48 25° SSW 21:42:00 78° W 21:45:54 10° N
STARLINK-1346 4.5 21:44:17 23° ENE 21:44:17 23° ENE 21:45:41 10° ENE
RESURS DK-1 4.2 21:45:05 17° E 21:45:05 17° E 21:47:04 10° ENE
STARLINK-1352 3.8 21:44:46 41° SSE 21:45:07 43° SE 21:48:52 10° ENE
STARLINK-1356 4.5 21:47:03 23° ENE 21:47:03 23° ENE 21:48:24 10° ENE
STARLINK-1345 4.5 21:47:21 23° ENE 21:47:21 23° ENE 21:48:44 10° ENE
STARLINK-1355 4.5 21:47:39 23° ENE 21:47:39 23° ENE 21:49:04 10° ENE
STARLINK-1321 4.5 21:48:00 23° ENE 21:48:00 23° ENE 21:49:24 10° ENE
STARLINK-1358 4.4 21:48:21 24° ENE 21:48:21 24° ENE 21:49:46 10° ENE
STARLINK-1332 4.4 21:48:38 24° ENE 21:48:38 24° ENE 21:50:04 10° ENE
STARLINK-1348 4.4 21:48:58 24° ENE 21:48:58 24° ENE 21:50:25 10° ENE
STARLINK-1330 4.4 21:49:18 24° ENE 21:49:18 24° ENE 21:50:46 10° ENE
Cosmos 1455 Rocket 2.9 21:43:32 10° N 21:47:54 88° W 21:49:41 35° S
STARLINK-1363 4.4 21:49:37 24° ENE 21:49:37 24° ENE 21:51:05 10° ENE
STARLINK-1337 4.4 21:49:57 25° ENE 21:49:57 25° ENE 21:51:27 10° ENE
STARLINK-1342 4.4 21:50:17 25° ENE 21:50:17 25° ENE 21:51:48 10° ENE
Meteor 2-13 Rocket 4.4 21:44:29 20° S 21:48:55 85° E 21:55:07 10° N
STARLINK-1364 4.3 21:50:37 25° ENE 21:50:37 25° ENE 21:52:08 10° ENE
STARLINK-1368 3.7 21:48:46 43° SSE 21:49:18 46° SE 21:53:06 10° ENE
STARLINK-1376 4.3 21:50:56 25° ENE 21:50:56 25° ENE 21:52:28 10° ENE
STARLINK-1360 4.3 21:51:15 26° ENE 21:51:15 26° ENE 21:52:49 10° ENE
Cosmos 2263 4.2 21:44:16 10° SSW 21:49:52 81° WNW 21:55:31 10° NNE
STARLINK-1361 4.3 21:51:36 26° ENE 21:51:36 26° ENE 21:53:09 10° ENE
STARLINK-1367 4.2 21:51:50 27° ENE 21:51:50 27° ENE 21:53:29 10° ENE
STARLINK-1366 4.3 21:52:13 27° ENE 21:52:13 27° ENE 21:53:50 10° ENE
Cosmos 1953 3.6 21:47:53 10° NNE 21:51:17 26° ENE 21:51:59 25° E
SPOT 5 3.1 21:48:43 28° S 21:51:35 80° WSW 21:56:59 10° NNW
CENTAUR R/B 3.2 21:44:15 10° NW 21:52:27 89° SW 21:57:55 27° SSE
STARLINK-52 4.2 21:49:47 10° WSW 21:52:52 42° NNW 21:55:58 10° NE
STARLINK-1369 3.6 21:52:47 44° S 21:53:30 50° SE 21:57:21 10° ENE
S3M 4.5 21:47:36 10° N 21:53:33 46° ENE 21:56:24 28° SE
Cosmos 2026 Rocket 4.1 21:48:44 17° SSW 21:53:47 80° W 22:00:11 10° N
Cosmos 1503 Rocket 4.2 21:49:12 10° NNW 21:54:30 64° ENE 21:56:49 33° SE
CARTOSAT-1 3.9 21:54:31 30° SSW 21:56:28 59° W 22:00:44 10° NNW
Cosmos 1271 Rocket 2.6 21:56:17 46° S 21:57:22 75° E 22:01:19 10° NNE
STARLINK-1372 3.5 21:56:48 43° S 21:57:44 55° SE 22:01:36 10° ENE
SL-4 R/B 3.5 21:54:24 10° W 21:58:58 45° NNW 22:03:38 10° NE
ATLAS 3B R/B 3.2 21:53:04 10° NNW 21:59:44 54° NE 22:04:04 23° ESE
Terra 1.8 21:58:22 36° SSE 22:00:19 88° WSW 22:05:07 10° NNW
STARLINK-1378 3.4 21:59:49 48° S 22:00:31 58° SE 22:04:21 10° ENE
Cosmos 1943 Rocket 3.8 21:57:58 10° WSW 22:03:00 34° NW 22:08:07 10° N
BREEZE-M DEB (TANK) 3.3 21:53:26 10° SW 22:03:09 45° SSE 22:06:39 10° ENE
STARLINK-1379 3.3 22:03:10 51° S 22:03:51 61° SE 22:07:41 10° ENE
Cosmos 1553 Rocket 3.9 21:58:26 10° N 22:04:42 76° E 22:07:36 33° SSE
FALCON 9 DEB 3.9 22:02:45 10° WSW 22:06:06 53° NNW 22:09:28 10° NE
STARLINK-1329 3.3 22:06:16 49° SSW 22:07:06 65° SE 22:10:58 10° ENE
Cosmos 1174 3.2 22:06:48 67° SSW 22:07:12 89° NNW 22:10:52 10° NNE
ATLAS CENTAUR R/B 1.7 22:04:18 11° SW 22:08:32 70° NW 22:12:41 10° NNE
Cosmos 1707 2.6 22:08:16 57° SSE 22:08:56 73° E 22:12:49 10° NNE
Cosmos 1833 4.1 22:03:18 10° NNW 22:08:58 87° WSW 22:11:17 37° SSE
SL-27 R/B 4.0 22:06:13 10° NW 22:09:15 27° W 22:10:06 24° SW
Cosmos 1758 3.2 22:05:28 10° N 22:09:33 87° E 22:10:28 53° SSE
STARLINK-1235 3.0 22:06:59 10° WNW 22:10:14 67° SW 22:10:14 67° SW
SeaSat 1 3.8 22:07:33 10° NE 22:11:04 23° E 22:11:04 23° E
NOSS 3-2 (C) 4.3 22:04:38 10° NW 22:12:14 64° WSW 22:16:47 30° S
STARLINK-1362 3.3 22:11:07 40° SW 22:12:23 73° SE 22:16:19 10° ENE
COSMOS 2487 2.8 22:10:16 10° N 22:13:38 49° ENE 22:13:45 49° ENE
Cosmos 1354 Rocket 4.0 22:11:02 10° NNW 22:16:23 86° ENE 22:18:14 42° SSE
STARLINK-1373 3.3 22:15:16 37° SW 22:16:42 79° SE 22:20:39 10° ENE
Cosmos 1536 Rocket 3.4 22:16:14 51° S 22:17:18 80° E 22:21:41 10° N
NOSS 3-4 (A) 3.7 22:13:40 10° SW 22:19:33 67° NW 22:25:51 10° NNE
STARLINK-1390 3.2 22:18:23 43° SW 22:19:34 82° SE 22:23:27 10° NE
NOSS 3-4 (C) 3.7 22:13:45 10° SW 22:19:39 68° NW 22:25:57 10° NNE
EO 1 Del DPAF 4.1 22:16:42 10° NNE 22:19:51 35° E 22:19:51 35° E
STARLINK-1238 4.4 22:19:15 10° NW 22:23:17 47° NNE 22:24:55 30° E
Cosmos 1656 Rocket 4.1 22:18:59 13° SW 22:24:02 62° WNW 22:29:34 10° NNE
Cosmos 1242 Rocket 4.2 22:22:43 20° WSW 22:24:28 31° WNW 22:27:47 10° N
STARLINK-1365 3.4 22:22:30 24° SW 22:24:48 88° NW 22:28:47 10° NE
Cosmos 1992 Rocket 4.5 22:21:07 18° SW 22:24:58 58° WNW 22:30:07 10° NNE
Cosmos 1544 Rocket 4.2 22:21:01 10° NNW 22:25:12 48° W 22:26:32 35° SW
Cosmos 2266 Rocket 4.0 22:24:05 39° SSE 22:26:11 59° E 22:32:07 10° NNE
Meteor 1-16 Rocket 4.3 22:21:09 10° N 22:26:31 57° ENE 22:28:05 41° SE
Cosmos 2084 3.4 22:26:10 58° S 22:26:47 67° ESE 22:31:13 10° NE
Cosmos 1655 Rocket 3.9 22:25:20 35° S 22:28:10 84° E 22:34:29 10° N
STARLINK-1201 4.3 22:24:14 10° NW 22:28:17 50° NNE 22:29:42 34° E
STARLINK-1206 4.2 22:29:12 10° NW 22:33:16 54° NNE 22:34:29 38° E
Cosmos 2369 Rocket 4.1 22:30:06 10° WSW 22:34:57 28° NW 22:39:47 10° N
STARLINK-1212 4.5 22:32:53 10° WNW 22:34:41 28° W 22:34:41 28° W
STARLINK-1205 4.0 22:34:09 10° NW 22:38:16 58° NNE 22:39:15 44° E
Cosmos 2227 Rocket 4.2 22:35:20 10° N 22:39:29 20° NE 22:43:18 11° E
STARLINK-1338 3.6 22:37:51 30° WSW 22:39:33 69° NNW 22:43:20 10° NE
STARLINK-1218 3.9 22:39:09 10° NW 22:43:17 63° NNE 22:44:04 50° E
Spot 4 4.0 22:42:23 49° SE 22:43:25 62° ENE 22:48:13 10° N
Cosmos 2292 Rocket 3.4 22:44:12 54° NNE 22:44:12 54° NNE 22:46:40 10° NNE
ATLAS 2AS CENTAUR R/B 3.8 22:40:04 10° WSW 22:47:48 52° NW 22:55:33 10° NNE
STARLINK-1254 3.8 22:44:06 10° NW 22:48:14 68° NNE 22:48:49 58° E
Cosmos 2098 Rocket 4.5 22:45:55 39° SSE 22:48:47 65° E 22:56:08 10° NNE
STARLINK-1371 3.9 22:46:30 20° WSW 22:49:00 59° NNW 22:52:49 10° NE
Cosmos 1908 3.7 22:46:12 10° N 22:49:45 49° ENE 22:49:45 49° ENE
Cosmos 883 Rocket 4.4 22:44:14 10° N 22:50:23 76° E 22:52:19 46° SSE
Cosmos 1606 Rocket 3.9 22:47:04 10° N 22:51:18 50° ENE 22:51:37 49° E
Meteor 2-5 Rocket 4.1 22:51:49 42° ESE 22:52:49 46° E 22:58:12 10° NNE
STARLINK-1341 4.0 22:50:24 18° WSW 22:53:02 56° NNW 22:56:50 10° NE
STARLINK-1231 3.6 22:49:03 10° NW 22:53:12 73° NE 22:53:35 67° ENE
ALOS 2 3.4 22:53:44 36° E 22:54:21 38° ENE 22:58:25 10° N
Cosmos 1867 4.2 22:49:36 10° NW 22:54:40 40° WSW 22:55:40 37° SW
KORONAS-FOTON 4.0 22:56:12 62° ENE 22:56:12 62° ENE 22:59:42 10° NNE
Cosmos 1025 Rocket 4.4 22:54:38 25° WSW 22:56:12 32° WNW 23:00:07 10° N
STARLINK-1374 4.2 22:54:13 17° WSW 22:56:57 52° NNW 23:00:43 10° NE
STARLINK-1232 3.5 22:54:04 10° NW 22:58:14 79° NE 22:58:25 76° ENE
CZ-4C R/B 3.6 22:59:36 20° E 22:59:36 20° E 23:02:38 10° ENE
STARLINK-1339 4.3 22:58:04 16° WSW 23:00:55 49° NNW 23:04:40 10° NE
In-Cosmos 22 4.3 22:59:30 41° SW 23:01:14 65° WNW 23:06:30 10° N
STARLINK-1208 3.5 22:59:01 10° NW 23:03:09 85° NNE 23:03:09 85° NNE
Cosmos 1300 4.4 23:02:01 10° NNE 23:05:03 24° ENE 23:05:03 24° ENE
STARLINK-1377 4.5 23:03:39 10° WSW 23:07:22 46° NNW 23:11:11 10° NE
STARLINK-1271 3.6 23:04:01 10° NW 23:07:58 80° WNW 23:07:58 80° WNW
COSMOS 2455 3.9 23:04:40 10° WSW 23:10:22 43° NW 23:16:07 10° NNE
Cosmos 1674 2.9 23:11:24 67° NW 23:11:24 67° NW 23:14:57 10° N
Nimbus 7 Rocket 4.4 23:05:12 10° NNE 23:11:17 71° ESE 23:12:50 50° SSE
Cosmos 1726 3.3 23:08:27 10° NNW 23:11:43 34° W 23:11:43 34° W
STARLINK-1154 3.7 23:08:59 10° NW 23:12:44 70° WNW 23:12:44 70° WNW
Cosmos 1340 Rocket 3.8 23:09:56 10° NNW 23:13:42 37° W 23:13:48 37° W
Cosmos 1777 Rocket 3.9 23:10:29 10° NNW 23:15:44 79° WSW 23:16:35 62° S
Cosmos 921 Rocket 2.9 23:18:04 74° E 23:18:04 74° E 23:22:18 10° NNE
STARLINK-1197 3.8 23:13:58 10° WNW 23:17:30 61° W 23:17:30 61° W
Cosmos 2228 2.8 23:14:10 10° N 23:18:25 84° W 23:18:25 84° W
Thor Agena Rocket 4.2 23:14:21 10° N 23:19:28 51° WNW 23:21:25 33° SW
Cosmos 220 Rocket 4.0 23:20:04 75° E 23:20:04 75° E 23:24:27 10° NNE
RESURS DK-1 3.4 23:20:55 34° W 23:21:56 41° WNW 23:25:52 10° NNE
STARLINK-1198 4.0 23:18:58 10° WNW 23:22:18 53° W 23:22:18 53° W
Timation 2 Rocket 3.8 23:17:36 10° NNW 23:23:51 78° WSW 23:25:19 54° S
Lacrosse 4 Rocket 3.7 23:21:45 10° N 23:24:52 19° NE 23:26:59 14° E
Cosmos 1980 Rocket 4.3 23:25:34 12° E 23:25:47 12° E 23:27:44 10° ENE
BREEZE-M R/B 3.9 23:16:07 10° WSW 23:25:54 87° NNW 23:30:19 10° ENE
Okean 1-7 Rocket 3.6 23:25:56 66° E 23:25:58 66° E 23:30:29 10° NNE
Cosmos 1953 4.1 23:24:26 10° NW 23:27:32 22° W 23:27:41 22° W
STARLINK-1199 4.3 23:23:56 10° WNW 23:27:04 46° W 23:27:04 46° W
STARLINK-1210 4.5 23:28:56 10° WNW 23:31:51 40° W 23:31:51 40° W
USA 215 4.1 23:28:03 10° E 23:34:18 49° NNE 23:40:33 10° NW
Cosmos 1892 Rocket 3.4 23:34:23 80° W 23:34:25 81° W 23:38:49 10° N
Cosmos 1726 Rocket 3.6 23:30:39 10° NNW 23:34:55 68° W 23:34:55 68° W
Cosmos 1809 Rocket 4.4 23:33:52 51° SSW 23:35:34 85° W 23:41:49 10° N
Meteor 1-24 Rocket 3.5 23:36:46 63° S 23:37:39 84° E 23:43:12 10° NNE
Helios 1A 3.2 23:38:21 59° ENE 23:38:23 59° ENE 23:42:30 10° N
ATLAS 5 CENTAUR R/B 4.0 23:36:03 10° W 23:38:44 17° NW 23:40:29 10° N
SL-4 R/B 4.4 23:35:20 10° WNW 23:39:34 29° N 23:43:48 10° ENE
Cosmos 2315 Rocket 4.3 23:35:48 10° NNW 23:41:48 54° W 23:43:30 42° SW
Nadezhda 2 Rocket 4.4 23:40:15 51° SSW 23:41:53 80° W 23:48:06 10° N
Cosmos 1626 2.6 23:42:49 59° N 23:42:49 59° N 23:45:54 10° N
SJ 16-02 2.2 23:40:11 10° N 23:44:22 40° ENE 23:44:59 37° E
STARLINK-1244 4.4 23:41:11 10° NW 23:45:14 49° NNE 23:46:14 39° ENE
Cosmos 2297 Rocket 2.3 23:40:53 10° NNW 23:46:31 67° ENE 23:48:03 47° SE
ATLAS CENTAUR R/B 4.4 23:46:34 10° WNW 23:48:06 12° NW 23:49:38 10° NNW
Cosmos 2219 3.1 23:43:09 10° NNW 23:48:51 85° ENE 23:50:00 58° SSE
Cosmos 1656 3.6 23:48:16 60° SSE 23:49:02 68° ESE 23:54:37 10° NNE
SeaSat 1 3.1 23:44:23 10° NNE 23:49:09 50° WNW 23:50:50 35° WSW
ATLAS 3B R/B 3.5 23:44:07 10° NW 23:50:11 34° WSW 23:51:18 33° SW
STARLINK-1138 4.3 23:46:09 10° NW 23:50:14 52° NNE 23:51:00 45° ENE
Cosmos 468 Rocket 4.2 23:52:35 50° ESE 23:52:49 50° ESE 23:57:46 10° NNE
STARLINK-1143 4.1 23:51:08 10° NW 23:55:14 56° NNE 23:55:48 51° ENE
